Winona, MN

6:06 AM CST on January 18, 2018 (GMT -0600)
Winona Municipal-Conrad

Weather History for KONA - August, 2014

Change the Weather History Date:

Wednesday, August 27, 2014

  Actual Average Record
Temperature  
Mean Temperature 66 °F -  
Max Temperature 73 °F 83 °F 95 °F (2013)
Min Temperature 59 °F 63 °F 51 °F (1971)
Cooling Degree Days 1    
Growing Degree Days 16 (Base 50)    
Moisture  
Dew Point 59 °F    
Average Humidity 77    
Maximum Humidity 100    
Minimum Humidity 53    
Precipitation  
Precipitation 0.00 in - - ()
Sea Level Pressure  
Sea Level Pressure 30.17 in    
Wind  
Wind Speed 1 mph (NNE)    
Max Wind Speed 6 mph    
Max Gust Speed -    
Visibility 10 miles    
Events Rain    
Averages and records for this station are not official NWS values.
T = Trace of Precipitation, MM = Missing Value Source: NWS Daily Summary

Daily Weather History Graph

Daily Weather History Graph

Search for Another Location

Airport or City:

Trip Planner

Search our weather history database for the weather conditions in past years. The results will help you decide how hot, cold, wet, or windy it might be!

Date:

Astronomy

Aug. 27, 2014 Rise Set
Actual Time 6:24 AM CDT 7:51 PM CDT
Civil Twilight 5:54 AM CDT 8:21 PM CDT
Nautical Twilight 5:17 AM CDT 8:57 PM CDT
Astronomical Twilight 4:38 AM CDT 9:36 PM CDT
Moon 8:26 AM CDT (8/27) 8:37 PM CDT (8/27)
Length of Visible Light 14h 27m
Length of Day
13h 27m
Waxing Crescent, 4% of the Moon is Illuminated
Aug 27
Waxing Crescent
Sep 2
First Quarter
Sep 8
Full
Sep 15
Last Quarter
Sep 24
New

Hourly Weather History & Observations

Time (CDT) Temp. Dew Point Humidity Pressure Visibility Wind Dir Wind Speed Gust Speed Precip Events Conditions
12:16 AM 60.8 °F 59.0 °F 94% 30.17 in 10.0 mi Calm Calm - N/A   Clear
12:36 AM 60.8 °F 59.0 °F 94% 30.17 in 10.0 mi Calm Calm - N/A   Clear
12:56 AM 60.8 °F 57.2 °F 88% 30.18 in 10.0 mi Calm Calm - N/A   Mostly Cloudy
1:16 AM 60.8 °F 57.2 °F 88% 30.18 in 10.0 mi Calm Calm - N/A   Overcast
1:36 AM 60.8 °F 59.0 °F 94% 30.18 in 10.0 mi Calm Calm - N/A   Overcast
1:56 AM 60.8 °F 57.2 °F 88% 30.18 in 10.0 mi NW 4.6 mph - N/A   Overcast
2:16 AM 60.8 °F 59.0 °F 94% 30.18 in 10.0 mi Calm Calm - N/A   Overcast
2:36 AM 60.8 °F 59.0 °F 94% 30.19 in 10.0 mi Calm Calm - N/A   Mostly Cloudy
2:56 AM 60.8 °F 59.0 °F 94% 30.18 in 10.0 mi Calm Calm - N/A   Scattered Clouds
3:16 AM 59.0 °F 57.2 °F 94% 30.18 in 10.0 mi Calm Calm - N/A   Scattered Clouds
3:36 AM 60.8 °F 59.0 °F 94% 30.18 in 10.0 mi Calm Calm - N/A Rain Light Rain
3:56 AM 60.8 °F 59.0 °F 94% 30.18 in 7.0 mi NNW 3.5 mph - N/A   Overcast
4:16 AM 60.8 °F 59.0 °F 94% 30.18 in 10.0 mi Calm Calm - N/A Rain Light Rain
4:37 AM 60.8 °F 59.0 °F 94% 30.17 in 10.0 mi NNW 3.5 mph - N/A   Overcast
4:56 AM 60.8 °F 59.0 °F 94% 30.18 in 10.0 mi NW 3.5 mph - N/A   Overcast
5:16 AM 60.8 °F 59.0 °F 94% 30.17 in 10.0 mi Calm Calm - N/A   Mostly Cloudy
5:36 AM 60.8 °F 59.0 °F 94% 30.17 in 10.0 mi NNW 4.6 mph - N/A   Mostly Cloudy
5:56 AM 60.8 °F 60.8 °F 100% 30.18 in 10.0 mi Calm Calm - N/A   Overcast
6:16 AM 60.8 °F 59.0 °F 94% 30.18 in 10.0 mi Calm Calm - N/A   Mostly Cloudy
6:36 AM 60.8 °F 59.0 °F 94% 30.17 in 10.0 mi Calm Calm - N/A   Overcast
6:56 AM 60.8 °F 59.0 °F 94% 30.17 in 10.0 mi Calm Calm - N/A   Overcast
7:16 AM 60.8 °F 59.0 °F 94% 30.18 in 10.0 mi Calm Calm - N/A   Overcast
7:36 AM 60.8 °F 59.0 °F 94% 30.19 in 10.0 mi Calm Calm - N/A   Overcast
7:56 AM 62.6 °F 59.0 °F 88% 30.19 in 10.0 mi Calm Calm - N/A   Mostly Cloudy
8:16 AM 64.4 °F 57.2 °F 77% 30.21 in 10.0 mi Calm Calm - N/A   Scattered Clouds
8:36 AM 64.4 °F 55.4 °F 73% 30.21 in 7.0 mi NNE 5.8 mph - N/A   Mostly Cloudy
8:56 AM 68.0 °F 59.0 °F 73% 30.21 in 7.0 mi ENE 4.6 mph - N/A   Mostly Cloudy
9:16 AM 66.2 °F 57.2 °F 73% 30.21 in 10.0 mi East 3.5 mph - N/A   Overcast
9:36 AM 69.8 °F 59.0 °F 68% 30.21 in 10.0 mi NE 3.5 mph - N/A   Overcast
10:16 AM 69.8 °F 57.2 °F 64% 30.22 in 10.0 mi East 4.6 mph - N/A   Mostly Cloudy
10:37 AM 69.8 °F 57.2 °F 64% 30.22 in 10.0 mi Calm Calm - N/A   Scattered Clouds
11:16 AM 69.8 °F 55.4 °F 60% 30.22 in 10.0 mi NE 3.5 mph - N/A   Overcast
11:36 AM 69.8 °F 55.4 °F 60% 30.22 in 7.0 mi Calm Calm - N/A   Mostly Cloudy
11:56 AM 71.6 °F 57.2 °F 60% 30.22 in 5.0 mi NNE 3.5 mph - N/A   Haze
12:16 PM 71.6 °F 57.2 °F 60% 30.21 in 5.0 mi Calm Calm - N/A   Haze
12:37 PM 71.6 °F 59.0 °F 64% 30.20 in 7.0 mi Calm Calm - N/A   Clear
12:56 PM 71.6 °F 55.4 °F 57% 30.19 in 7.0 mi Calm Calm - N/A   Clear
1:16 PM 73.4 °F 59.0 °F 61% 30.19 in 10.0 mi NW 3.5 mph - N/A   Clear
1:36 PM 73.4 °F 59.0 °F 61% 30.19 in 10.0 mi WSW 4.6 mph - N/A   Clear
1:56 PM 73.4 °F 59.0 °F 61% 30.19 in 10.0 mi Calm Calm - N/A   Clear
2:16 PM 73.4 °F 59.0 °F 61% 30.19 in 10.0 mi Calm Calm - N/A   Scattered Clouds
2:36 PM 73.4 °F 59.0 °F 61% 30.18 in 10.0 mi WNW 3.5 mph - N/A   Clear
2:56 PM 73.4 °F 59.0 °F 61% 30.18 in 10.0 mi NNW 4.6 mph - N/A   Clear
3:16 PM 73.4 °F 59.0 °F 61% 30.17 in 7.0 mi NE 4.6 mph - N/A   Clear
3:36 PM 73.4 °F 57.2 °F 57% 30.16 in 10.0 mi ENE 4.6 mph - N/A   Clear
3:56 PM 73.4 °F 57.2 °F 57% 30.16 in 10.0 mi NE 3.5 mph - N/A   Clear
4:16 PM 73.4 °F 55.4 °F 53% 30.16 in 10.0 mi Calm Calm - N/A   Clear
4:36 PM 73.4 °F 55.4 °F 53% 30.16 in 10.0 mi Calm Calm - N/A   Clear
4:56 PM 73.4 °F 57.2 °F 57% 30.15 in 10.0 mi Calm Calm - N/A   Clear
5:17 PM 73.4 °F 57.2 °F 57% 30.14 in 10.0 mi Calm Calm - N/A   Clear
5:36 PM 73.4 °F 55.4 °F 53% 30.14 in 10.0 mi Calm Calm - N/A   Clear
5:56 PM 73.4 °F 57.2 °F 57% 30.13 in 7.0 mi Calm Calm - N/A   Clear
6:17 PM 73.4 °F 59.0 °F 61% 30.13 in 10.0 mi Calm Calm - N/A   Clear
6:36 PM 73.4 °F 57.2 °F 57% 30.12 in 10.0 mi Calm Calm - N/A   Clear
6:56 PM 73.4 °F 59.0 °F 61% 30.12 in 10.0 mi Calm Calm - N/A   Clear
7:17 PM 73.4 °F 60.8 °F 65% 30.12 in 10.0 mi Calm Calm - N/A   Clear
7:36 PM 71.6 °F 60.8 °F 69% 30.12 in 10.0 mi East 3.5 mph - N/A   Clear
7:56 PM 69.8 °F 60.8 °F 73% 30.12 in 10.0 mi Calm Calm - N/A   Clear
8:17 PM 69.8 °F 60.8 °F 73% 30.12 in 10.0 mi Calm Calm - N/A   Clear
8:36 PM 69.8 °F 62.6 °F 78% 30.12 in 10.0 mi Calm Calm - N/A   Clear
8:56 PM 68.0 °F 62.6 °F 83% 30.12 in 10.0 mi Calm Calm - N/A   Clear
9:17 PM 64.4 °F 60.8 °F 88% 30.13 in 10.0 mi Calm Calm - N/A   Clear
9:36 PM 62.6 °F 60.8 °F 94% 30.14 in 10.0 mi Calm Calm - N/A   Clear
9:56 PM 62.6 °F 60.8 °F 94% 30.14 in 10.0 mi Calm Calm - N/A   Clear
10:17 PM 62.6 °F 60.8 °F 94% 30.14 in 10.0 mi Calm Calm - N/A   Clear
10:36 PM 60.8 °F 59.0 °F 94% 30.15 in 10.0 mi Calm Calm - N/A   Clear
10:57 PM 60.8 °F 60.8 °F 100% 30.15 in 10.0 mi Calm Calm - N/A   Clear
11:16 PM 60.8 °F 60.8 °F 100% 30.15 in 10.0 mi Calm Calm - N/A   Clear
11:36 PM 60.8 °F 59.0 °F 94% 30.15 in 10.0 mi Calm Calm - N/A   Clear